sat.trackr.live / text

‹ back to catalog

STARLINK-31097

NORAD 58718 · 2024-002P

PAYLOAD ACTIVE UNKNOWN

§ Identity

Operator
Country
US
Launch date
2024-01-03
Launch site
AFWTR
Launch vehicle
Mass (kg)
RCS (m²)

Purposes: comms

External: N2YO · Heavens-Above · Gunter

§ Orbital elements

Epoch: 2026-09-20T13:37:02.140032Z

Period
93.85 min
Inclination
53.1593°
Eccentricity
0.0001299
Mean motion
15.34390511 rev/d
Perigee alt
461.8 km
Apogee alt
463.6 km
Semi-major
6,840.9 km
B*
3.5456e-5
RAAN
43.2111°
Arg perigee
96.4206°
Mean anomaly
263.6944°
Rev number
15,187

§ Raw data

STARLINK-310971 58718U 24002P   26263.56738588  .00000821  00000+0  35456-4 0  99932 58718  53.1593  43.2111 0001299  96.4206 263.6944 15.34390511151875

JSON: /api/v1/satellites/58718 · /tle

For live sub-satellite position, see the globe view (requires WebGL).

§ Visibility from observer

Set your observer location to see the next 7 days of passes ≥ 10°. The values pass through the URL so the page stays shareable.

No JS? Fill the form by hand. The geolocation button needs JavaScript.